Location: Unspecified
(35.7250°N, 0.0000°E)
Time: 12:57:28
(UTC+00:00)

Explorer 7 - Pass Details

Date: 18 August 2020
Orbit: 485 x 679 km, 50.3° (Epoch: 21 September)

Event Time Altitude Azimuth Distance (km) Brightness Sun altitude
Rises 21:00:27 0° 318° (NW) 2,629 11.6 -25.0°
Reaches altitude 10° 21:03:27 10° 342° (NNW) 1,710 10.1 -25.5°
Maximum altitude 21:05:47 15° 19° (NNE) 1,393 9.1 -25.9°
Enters shadow 21:05:51 15° 21° (NNE) 1,393 9.1 -25.9°
